Stations météo

Publicité
Pau, France (7610): Température de l'air & dewpoint: 15.10.2017 10:00:00 - 21.10.2017 10:00:00 (CEST)Pau, France (7610): Température de l'air 5cm: 15.10.2017 10:00:00 - 21.10.2017 10:00:00 (CEST)Pau, France (7610): Température de l'air -20cm & Température de l'air -100cm: 15.10.2017 10:00:00 - 21.10.2017 10:00:00 (CEST)Pau, France (7610): Vitesse du vent & gusts: 15.10.2017 10:00:00 - 21.10.2017 10:00:00 (CEST)Pau, France (7610): Direction du vent: 15.10.2017 10:00:00 - 21.10.2017 10:00:00 (CEST)Pau, France (7610): reduced air pressure: 15.10.2017 10:00:00 - 21.10.2017 10:00:00 (CEST)Pau, France (7610): visibility: 15.10.2017 10:00:00 - 21.10.2017 10:00:00 (CEST)Pau, France (7610): Ensoleillement: 15.10.2017 10:00:00 - 21.10.2017 10:00:00 (CEST)Pau, France (7610): Quantités de précipitations: 15.10.2017 10:00:00 - 21.10.2017 10:00:00 (CEST)
Date & Time tt [°C] td [°C] tt 5cm [°C] tt -20cm [°C] tt -100cm [°C] ff [km/h] ff [knt] fx [km/h] fx [knt] dd ppp [hPa] vv [km] sd [min] rr [mm]
21.10.2017 10:00:00 15,7 14,9 15,4 17,1 17,7 11 6 23 13 W 1022,7 4,9 0 0,2
21.10.2017 09:00:00 16,1 15,0 15,1 17,2 17,7 13 7 20 11 W 1021,9 10 0 0,0
21.10.2017 08:00:00 16,0 14,9 15,1 17,2 17,7 13 7 34 18 WNW 1020,9 10 0 0,0
21.10.2017 07:00:00 15,7 13,7 12,5 17,3 17,8 17 9 39 21 WNW 1020,4 32 0 0,0
21.10.2017 06:00:00 12,8 9,4 10,3 17,4 17,8 8 5 13 7 SE 1018,6 52 0 0,0
21.10.2017 05:00:00 11,4 8,6 9,2 17,4 17,7 8 4 14 8 SSE 1018,3 10 0 0,0
21.10.2017 04:00:00 11,7 8,7 9,3 17,5 17,8 9 5 11 6 SE 1017,8 58 0 0,0
21.10.2017 03:00:00 11,5 9,1 8,9 17,5 17,8 8 4 13 7 ESE 1017,4 10 0 0,0
21.10.2017 02:00:00 12,0 9,6 9,2 17,6 17,8 5 3 11 6 - 1017,4 10 0 0,0
21.10.2017 01:00:00 12,3 9,8 8,4 17,6 17,8 8 4 11 6 SE 1017,4 10 0 0,0
21.10.2017 00:00:00 12,7 10,4 9,9 17,6 17,8 8 4 11 6 SE 1017,4 10 0 0,0
20.10.2017 23:00:00 13,7 11,2 11,8 17,6 17,8 8 4 12 7 SE 1017,6 10 0 0,0
20.10.2017 22:00:00 14,4 11,4 11,5 17,6 17,8 8 4 16 8 ESE 1017,6 31 0 0,0
20.10.2017 21:00:00 15,5 11,3 11,5 17,6 17,8 4 2 10 6 SSE 1017,4 36 0 0,0
20.10.2017 20:00:00 16,1 11,7 12,3 17,5 17,8 7 4 10 5 E 1017,5 39 1 0,0
20.10.2017 19:00:00 20,2 10,6 17,7 17,4 17,8 7 4 12 7 ESE 1016,8 56 60 0,0
20.10.2017 18:00:00 22,1 11,2 25,8 17,3 17,8 4 2 8 4 ENE 1016,7 51 60 0,0
20.10.2017 17:00:00 21,9 12,7 26,1 17,3 17,8 5 3 15 8 ESE 1016,7 37 60 0,0
20.10.2017 16:00:00 21,4 13,1 24,0 17,2 17,8 5 3 11 6 - 1016,8 10 43 0,0
20.10.2017 15:00:00 19,6 14,6 21,3 17,2 17,8 4 2 9 5 - 1017,2 10 0 0,0
20.10.2017 14:00:00 18,9 14,4 21,1 17,2 17,8 0 0 11 6 N 1017,8 10 2 0,0
20.10.2017 13:00:00 18,8 13,6 20,7 17,3 17,8 2 1 8 4 ESE 1018,1 46 1 0,0
20.10.2017 12:00:00 16,6 11,9 16,2 17,3 17,8 4 2 11 6 - 1018,5 10 0 0,0
20.10.2017 11:00:00 14,5 11,8 14,0 17,3 17,8 6 3 10 5 ESE 1018,2 40 0 0,0
20.10.2017 10:00:00 13,2 10,9 12,6 17,4 17,8 9 5 14 8 SE 1017,7 46 0 0,0
20.10.2017 09:00:00 12,7 10,8 12,1 17,4 17,8 4 2 10 6 SE 1017,1 51 0 0,0
20.10.2017 08:00:00 12,4 10,5 11,4 17,5 17,8 8 4 10 5 SE 1016,6 45 0 0,0
20.10.2017 07:00:00 12,2 10,4 11,1 17,6 17,8 7 4 10 5 SE 1016,3 49 0 0,0
20.10.2017 06:00:00 11,8 10,4 10,1 17,7 17,8 6 3 10 6 SE 1015,9 52 0 0,0
20.10.2017 05:00:00 11,3 10,2 9,1 17,7 17,8 9 5 13 7 SE 1015,5 10 0 0,0
20.10.2017 04:00:00 11,2 10,3 9,4 17,7 17,7 6 4 10 5 SE 1015,4 38 0 0,0
20.10.2017 03:00:00 11,4 10,5 8,8 17,9 17,8 4 2 12 7 SE 1015,1 10 0 0,0
20.10.2017 02:00:00 11,6 10,8 10,1 17,9 17,8 9 5 11 6 SE 1014,6 20 0 0,0
20.10.2017 01:00:00 11,8 11,2 10,5 17,9 17,8 6 3 12 6 ESE 1014,0 10 0 0,0
20.10.2017 00:00:00 12,0 11,2 9,7 18,0 17,8 4 2 17 9 ESE 1013,9 15 0 0,2
19.10.2017 23:00:00 12,0 11,2 9,1 18,0 17,8 5 3 9 5 SE 1013,7 11 0 0,0
19.10.2017 22:00:00 12,3 11,4 9,1 18,0 17,8 2 1 4 2 ESE 1013,3 9 0 0,0
19.10.2017 21:00:00 13,1 11,7 10,0 18,0 17,8 0 0 9 5 N 1012,7 32 0 0,0
19.10.2017 20:00:00 14,7 12,2 11,6 17,9 17,8 7 4 9 5 SE 1012,5 31 0 0,0
19.10.2017 19:00:00 17,5 12,8 16,0 17,8 17,8 3 2 8 5 NNE 1011,9 53 55 0,0
19.10.2017 18:00:00 19,2 12,5 22,5 17,8 17,8 4 2 10 6 SSW 1011,1 43 60 0,0
19.10.2017 17:00:00 19,1 11,9 24,5 17,8 17,8 4 2 11 6 ESE 1010,7 39 60 0,0
19.10.2017 16:00:00 18,4 12,2 19,0 17,8 17,8 4 2 11 6 - 1011,0 10 45 0,0
19.10.2017 15:00:00 17,6 12,9 18,8 17,8 17,8 2 1 8 4 - 1011,1 10 9 0,0
19.10.2017 14:00:00 15,9 12,8 15,4 17,8 17,8 5 3 10 6 - 1011,9 10 0 0,0
19.10.2017 13:00:00 15,1 13,1 15,1 17,8 17,8 5 3 12 7 WSW 1012,3 10 0 0,0
19.10.2017 12:00:00 14,8 13,0 14,5 17,8 17,8 8 4 13 7 WSW 1012,4 10 0 0,0
19.10.2017 11:00:00 14,3 12,8 14,1 17,9 17,8 4 2 11 6 SW 1012,2 42 0 0,0
19.10.2017 10:00:00 13,9 12,8 13,5 17,9 17,8 5 3 11 6 - 1011,7 10 0 0,0
19.10.2017 09:00:00 13,6 12,8 13,1 18,0 17,8 0 0 7 4 N 1011,1 10 0 0,0
19.10.2017 08:00:00 13,4 12,6 13,0 18,0 17,8 4 2 9 5 - 1010,8 10 0 0,0
19.10.2017 07:00:00 13,4 12,5 13,0 18,1 17,8 2 1 7 4 S 1010,9 7 0 0,4
19.10.2017 06:00:00 13,7 12,6 13,5 18,1 17,8 2 1 5 3 SSW 1010,5 16 0 0,0
19.10.2017 05:00:00 13,7 12,8 12,8 18,2 17,8 4 2 8 4 S 1010,5 10 0 0,0
19.10.2017 04:00:00 13,7 12,6 13,3 18,2 17,8 4 2 8 4 SE 1010,6 24 0 0,0
19.10.2017 03:00:00 13,7 12,4 13,2 18,3 17,8 5 3 8 4 S 1010,8 34 0 0,0
19.10.2017 02:00:00 13,4 12,5 12,2 18,3 17,8 4 2 6 3 ESE 1010,7 10 0 0,0
19.10.2017 01:00:00 13,6 12,3 12,7 18,4 17,8 5 3 7 4 S 1010,7 10 0 0,0
19.10.2017 00:00:00 13,5 11,9 12,6 18,4 17,8 2 1 6 4 S 1010,4 49 0 0,0
18.10.2017 23:00:00 13,7 12,3 12,8 18,4 17,8 6 4 14 8 SSW 1010,3 38 0 0,0
18.10.2017 22:00:00 13,5 12,6 12,5 18,5 17,8 7 4 14 7 S 1009,8 34 0 0,0
18.10.2017 21:00:00 13,4 12,3 12,6 18,5 17,7 8 4 13 7 WNW 1009,7 37 0 0,4
18.10.2017 20:00:00 13,8 12,5 13,2 18,5 17,8 11 6 24 13 NW 1010,2 10 0 1,8
18.10.2017 19:00:00 14,8 13,3 14,1 18,5 17,8 16 9 38 21 WNW 1009,2 28 0 0,6
18.10.2017 18:00:00 17,6 15,9 16,4 18,5 17,8 4 2 11 6 - 1007,8 10 0 0,2
18.10.2017 17:00:00 18,0 16,5 16,4 18,5 17,8 4 2 18 10 - 1008,1 10 0 0,0
18.10.2017 16:00:00 17,1 15,6 16,4 18,4 17,8 8 4 22 12 NNE 1007,9 10 0 3,6
18.10.2017 15:00:00 18,8 15,5 17,1 18,4 17,8 11 6 16 9 SSW 1010,0 10 6 0,4
18.10.2017 14:00:00 19,4 15,9 19,0 18,4 17,8 8 4 15 8 NNW 1008,7 10 5 0,0
18.10.2017 13:00:00 19,1 14,8 16,4 18,4 17,7 11 6 26 14 WNW 1010,1 10 1 0,6
18.10.2017 12:00:00 21,1 12,5 20,9 18,5 17,7 11 6 20 11 ESE 1009,6 10 38 0,0
18.10.2017 11:00:00 20,1 13,8 17,5 18,5 17,8 3 1 9 5 SE 1010,0 20 41 0,0
18.10.2017 10:00:00 16,8 14,6 13,9 18,6 17,8 2 1 10 5 - 1011,0 10 17 0,0
18.10.2017 09:00:00 15,2 14,1 - 18,6 17,7 8 4 - - SE 1011,6 13 - -
18.10.2017 08:00:00 15,1 14,1 - - - 4 2 8 4 - 1011,6 10 - -
18.10.2017 07:00:00 15,6 14,6 - - - 5 3 9 5 SSE 1012,0 10 - 0,0
18.10.2017 06:00:00 15,3 14,2 - - - 4 2 9 5 - 1012,3 10 - 0,0
18.10.2017 05:00:00 15,5 14,2 - - - 5 3 9 5 ENE 1012,9 10 - -
18.10.2017 04:00:00 16,2 14,2 - - - 2 1 5 3 - 1013,2 10 - 0,2
18.10.2017 03:00:00 16,5 13,2 - - - 0 0 5 3 N 1013,4 10 - 0,0
18.10.2017 02:00:00 17,6 12,9 - - - 4 2 11 6 S 1013,7 10 - -
18.10.2017 01:00:00 16,9 13,0 - - - 5 3 9 5 ENE 1013,8 10 - 0,0
18.10.2017 00:00:00 17,2 13,3 - - - 2 1 8 4 - 1014,4 10 - 0,0
17.10.2017 23:00:00 18,7 12,9 - - - 0 0 9 5 N 1014,4 10 - -
17.10.2017 22:00:00 18,8 13,0 - - - 5 3 13 7 - 1014,2 10 - 0,0
17.10.2017 21:00:00 18,4 11,9 - - - 0 0 15 8 N 1014,3 10 - 0,0
17.10.2017 20:00:00 19,8 12,1 - - - 8 4 13 7 E 1014,0 10 - -
17.10.2017 19:00:00 23,3 11,4 - - - 9 5 18 10 E 1013,7 10 - 0,0
17.10.2017 18:00:00 26,6 9,4 - - - 11 6 22 12 E 1013,7 10 - 0,0
17.10.2017 17:00:00 27,8 9,1 29,8 18,4 17,7 11 6 20 11 E 1013,8 10 60 0,0
17.10.2017 16:00:00 28,0 10,7 31,1 18,3 17,7 11 6 20 11 ENE 1014,2 10 60 0,0
17.10.2017 15:00:00 27,4 10,1 30,4 18,2 17,7 9 5 19 11 NNE 1014,8 10 60 0,0
17.10.2017 14:00:00 26,4 12,1 30,9 18,2 17,7 8 4 13 7 NNE 1015,8 10 60 0,0
17.10.2017 13:00:00 24,1 15,8 30,4 18,2 17,7 5 3 13 7 NW 1016,8 10 60 0,0
17.10.2017 12:00:00 21,5 14,4 27,0 18,2 17,7 2 1 8 5 - 1017,6 10 60 0,0
17.10.2017 11:00:00 19,0 13,8 21,7 18,3 17,7 5 3 9 5 ESE 1018,3 10 60 0,0
17.10.2017 10:00:00 15,2 13,0 13,4 18,4 17,7 0 0 8 4 N 1018,9 10 60 0,0
17.10.2017 09:00:00 12,5 12,2 10,4 18,4 17,7 5 3 10 5 E 1019,0 4,4 25 0,0
17.10.2017 08:00:00 12,2 11,7 10,0 18,5 17,7 4 2 7 4 E 1019,0 4,9 0 0,2
17.10.2017 07:00:00 13,2 12,9 11,6 18,5 17,7 5 3 8 4 SE 1019,2 3,7 0 0,0
17.10.2017 06:00:00 14,3 14,0 13,8 18,6 17,7 0 0 5 3 N 1019,6 0,1 0 0,0
17.10.2017 05:00:00 15,1 14,8 14,7 18,6 17,7 5 3 8 4 SE 1020,1 0,1 0 0,0
17.10.2017 04:00:00 14,8 14,5 14,0 18,7 17,7 4 2 6 3 E 1020,9 0,5 0 0,0
17.10.2017 03:00:00 14,3 14,0 12,0 18,7 17,7 4 2 6 4 E 1021,7 0,1 0 0,0
17.10.2017 02:00:00 13,8 13,0 10,6 18,8 17,7 3 1 6 3 ESE 1022,4 0,5 0 0,2
17.10.2017 01:00:00 14,4 13,6 11,4 18,8 17,7 0 0 0 0 N 1022,7 4,9 0 0,0
17.10.2017 00:00:00 15,0 14,2 11,6 18,8 17,7 0 0 3 2 N 1023,2 1,7 0 0,0
16.10.2017 23:00:00 17,0 15,3 12,4 18,8 17,7 2 1 5 3 SSW 1023,2 4,3 0 0,0
16.10.2017 22:00:00 17,8 15,4 13,3 18,8 17,7 3 2 7 4 WNW 1023,2 5 0 0,0
16.10.2017 21:00:00 19,1 15,2 15,6 18,8 17,7 4 2 14 8 WSW 1023,0 6 0 0,0
16.10.2017 20:00:00 20,8 14,9 17,4 18,7 17,7 9 5 23 13 W 1022,5 13 0 0,0
16.10.2017 19:00:00 25,3 14,7 21,5 18,5 17,7 5 3 16 9 NE 1021,3 37 46 0,0
16.10.2017 18:00:00 27,6 14,2 28,4 18,4 17,7 13 7 23 13 NNE 1020,7 10 60 0,0
16.10.2017 17:00:00 28,8 13,9 31,4 18,3 17,7 13 7 20 11 NNE 1020,4 10 60 0,0
16.10.2017 16:00:00 29,3 13,1 32,4 18,2 17,7 13 7 24 13 NNE 1020,2 41 60 0,0
16.10.2017 15:00:00 30,0 12,0 34,0 18,0 17,7 13 7 19 11 NNE 1020,2 10 60 0,0
16.10.2017 14:00:00 29,9 10,9 34,0 18,0 17,7 8 4 16 9 NE 1020,5 10 60 0,0
16.10.2017 13:00:00 28,6 12,5 34,6 18,0 17,7 5 3 10 5 - 1020,8 10 60 0,0
16.10.2017 12:00:00 27,4 14,1 29,2 18,0 17,7 5 3 9 5 ESE 1020,8 18 60 0,0
16.10.2017 11:00:00 22,9 12,2 23,0 18,1 17,7 5 3 16 8 SE 1021,2 20 60 0,0
16.10.2017 10:00:00 18,2 11,7 15,5 18,2 17,7 8 4 13 7 SE 1021,3 10 60 0,0
16.10.2017 09:00:00 14,3 10,5 8,0 18,3 17,7 13 7 17 9 SE 1021,0 10 19 0,0
16.10.2017 08:00:00 11,3 9,4 8,2 18,3 17,7 6 3 8 4 ESE 1020,9 19 0 0,0
16.10.2017 07:00:00 12,4 10,3 8,7 18,4 17,7 0 0 13 7 N 1020,6 17 0 0,0
16.10.2017 06:00:00 13,3 12,0 8,6 18,5 17,7 6 3 9 5 ESE 1020,4 14 0 0,0
16.10.2017 05:00:00 13,3 12,4 9,4 18,6 17,7 5 3 8 5 - 1020,5 10 0 0,0
16.10.2017 04:00:00 14,3 12,8 10,2 18,6 17,7 0 0 8 5 N 1020,7 10 0 0,0
16.10.2017 03:00:00 14,8 13,0 10,9 18,7 17,7 4 2 8 5 ESE 1020,9 18 0 0,0
16.10.2017 02:00:00 16,0 14,0 11,1 18,7 17,7 5 3 9 5 ESE 1021,2 10 0 0,0
16.10.2017 01:00:00 16,0 13,7 11,3 18,7 17,7 5 3 8 4 ESE 1021,4 21 0 0,0
16.10.2017 00:00:00 17,9 14,2 12,0 18,7 17,7 5 3 9 5 ESE 1021,3 10 0 0,0
15.10.2017 23:00:00 17,6 13,9 12,3 18,7 17,7 5 3 9 5 ESE 1021,3 10 0 0,0
15.10.2017 22:00:00 20,2 14,1 14,9 18,7 17,7 3 2 10 5 SE 1021,1 30 0 0,0
15.10.2017 21:00:00 21,6 14,3 17,0 18,6 17,7 8 4 18 10 ESE 1021,0 10 0 0,0
15.10.2017 20:00:00 23,3 14,6 19,6 18,5 17,7 10 5 16 9 ESE 1020,9 33 0 0,0
15.10.2017 19:00:00 25,6 14,4 22,1 18,4 17,7 5 3 21 11 E 1020,4 10 40 0,0
15.10.2017 18:00:00 28,1 13,2 28,2 18,2 17,7 11 6 21 11 E 1020,1 10 60 0,0
15.10.2017 17:00:00 29,5 11,5 31,0 18,1 17,7 11 6 17 9 ENE 1020,0 10 60 0,0
15.10.2017 16:00:00 30,1 11,6 32,9 18,0 17,7 9 5 18 10 ENE 1020,4 10 60 0,0
15.10.2017 15:00:00 30,1 13,0 34,8 17,8 17,6 11 6 16 9 NW 1020,5 20 60 0,0
15.10.2017 14:00:00 29,5 13,7 34,5 17,8 17,7 5 3 12 6 - 1020,9 10 60 0,0
15.10.2017 13:00:00 28,5 14,3 32,3 17,8 17,7 3 2 9 5 SSE 1021,7 46 60 0,0
15.10.2017 12:00:00 25,5 14,0 28,7 17,9 17,6 4 2 11 6 S 1022,2 41 60 0,0
15.10.2017 11:00:00 22,2 12,4 23,3 17,9 17,6 8 4 14 8 SE 1022,7 10 60 0,0
15.10.2017 10:00:00 18,4 11,2 17,4 18,0 17,7 8 4 13 7 SE 1022,7 37 60 0,0

tt = Température de l'air
td = dewpoint
tt 5cm = Température de l'air 5cm
tt -20cm = Température de l'air -20cm
tt -100cm = Température de l'air -100cm
ff = Vitesse du vent
fx = gusts
dd = Direction du vent
ppp = reduced air pressure
vv = visibility
sd = Ensoleillement
rr = Quantités de précipitations

stations d'obs. à proximité